Weather History for Lawrence, MA

Change the Weather History Date:

Monday, April 22, 2013

  Actual Average Record
Temperature  
Mean Temperature 42 °F -  
Max Temperature 52 °F 60 °F 84 °F (2001)
Min Temperature 33 °F 40 °F 27 °F (1947)
Degree Days  
Heating Degree Days 22    
Moisture  
Dew Point 28 °F    
Average Humidity 59    
Maximum Humidity 82    
Minimum Humidity 31    
Precipitation  
Precipitation 0.00 in - - ()
Sea Level Pressure  
Sea Level Pressure 30.71 in    
Wind  
Wind Speed 6 mph (ENE)    
Max Wind Speed 15 mph    
Max Gust Speed 23 mph    
Visibility 10 miles    
Events      
Averages and records for this station are not official NWS values.
T = Trace of Precipitation, MM = Missing Value Source: NWS Daily Summary

Daily Weather History Graph

Daily Weather History Graph

Search for Another Location

Airport:

Trip Planner

Search our weather history database for the weather conditions in past years. The results will help you decide how hot, cold, wet, or windy it might be!

Date:

Astronomy

Apr. 22, 2013 Rise Set
Actual Time 5:51 AM EDT 7:34 PM EDT
Civil Twilight 5:21 AM EDT 8:04 PM EDT
Nautical Twilight 4:45 AM EDT 8:41 PM EDT
Astronomical Twilight 4:06 AM EDT 9:20 PM EDT
Moon 4:16 PM EDT (4/22) 3:49 AM EDT (4/22)
Length of Visible Light 14h 43m
Length of Day
13h 43m
Waxing Gibbous, 87% of the Moon is Illuminated
Apr 22
Waxing Gibbous
Apr 25
Full
May 2
Last Quarter
May 9
New
May 18
First Quarter

Hourly Weather History & Observations

Time (EDT) Temp. Windchill Dew Point Humidity Pressure Visibility Wind Dir Wind Speed Gust Speed Precip Events Conditions
12:54 AM 36.0 °F - 28.9 °F 76% 30.70 in 10.0 mi Calm Calm - N/A   Clear
1:54 AM 35.1 °F - 30.0 °F 82% 30.70 in 10.0 mi Calm Calm - N/A   Clear
2:54 AM 35.1 °F - 28.9 °F 78% 30.71 in 10.0 mi Calm Calm - N/A   Clear
3:54 AM 33.1 °F 28.7 °F 28.0 °F 82% 30.71 in 10.0 mi NE 4.6 mph - N/A   Clear
4:54 AM 33.1 °F 28.7 °F 27.0 °F 78% 30.73 in 10.0 mi NNE 4.6 mph - N/A   Clear
5:54 AM 33.1 °F 30.0 °F 26.1 °F 75% 30.74 in 10.0 mi NNE 3.5 mph - N/A   Clear
6:54 AM 35.1 °F 28.6 °F 27.0 °F 72% 30.75 in 10.0 mi NNE 8.1 mph - N/A   Clear
7:54 AM 39.0 °F 34.0 °F 28.9 °F 67% 30.76 in 10.0 mi NNE 6.9 mph - N/A   Clear
8:54 AM 45.0 °F 38.9 °F 32.0 °F 60% 30.75 in 10.0 mi NNE 12.7 mph - N/A   Partly Cloudy
9:54 AM 50.0 °F - 26.1 °F 39% 30.76 in 10.0 mi East 10.4 mph 20.7 mph N/A   Partly Cloudy
10:54 AM 50.0 °F - 19.9 °F 31% 30.78 in 10.0 mi East 13.8 mph 20.7 mph N/A   Clear
11:54 AM 51.1 °F - 21.9 °F 32% 30.75 in 10.0 mi ENE 15.0 mph 23.0 mph N/A   Clear
12:54 PM 52.0 °F - 25.0 °F 35% 30.74 in 10.0 mi ENE 12.7 mph 23.0 mph N/A   Clear
1:54 PM 50.0 °F - 21.0 °F 32% 30.74 in 10.0 mi ENE 15.0 mph 23.0 mph N/A   Clear
2:54 PM 51.1 °F - 21.9 °F 32% 30.70 in 10.0 mi NE 12.7 mph - N/A   Clear
3:54 PM 50.0 °F - 28.9 °F 44% 30.69 in 10.0 mi ESE 15.0 mph 20.7 mph N/A   Partly Cloudy
4:54 PM 48.0 °F - 30.0 °F 50% 30.69 in 10.0 mi ENE 11.5 mph 18.4 mph N/A   Scattered Clouds
5:54 PM 46.9 °F - 32.0 °F 56% 30.68 in 10.0 mi East 12.7 mph 18.4 mph N/A   Mostly Cloudy
6:54 PM 45.0 °F 38.9 °F 33.1 °F 63% 30.68 in 10.0 mi East 12.7 mph 18.4 mph N/A   Mostly Cloudy
7:54 PM 43.0 °F 38.8 °F 32.0 °F 65% 30.68 in 10.0 mi East 6.9 mph - N/A   Partly Cloudy
8:54 PM 41.0 °F 36.4 °F 32.0 °F 70% 30.68 in 10.0 mi ENE 6.9 mph - N/A   Clear
9:54 PM 41.0 °F 37.1 °F 30.0 °F 65% 30.67 in 10.0 mi East 5.8 mph - N/A   Partly Cloudy
10:54 PM 39.9 °F 35.1 °F 28.9 °F 65% 30.64 in 10.0 mi ENE 6.9 mph - N/A   Clear
11:54 PM 39.0 °F 35.7 °F 28.9 °F 67% 30.63 in 10.0 mi ENE 4.6 mph - N/A   Clear